Terminal Aerodrome Forecast
Issued by NWS Omaha/Valley, NE

Home | Current Version | Previous Version | Text Only | Print | Product List | Glossary On
Versions: 1 2 3 4 5 6 7 8 9 10 11 12 13 14 15 16 17 18 19 20 21 22 23 24 25 26 27 28 29 30 31 32
000
FTUS43 KOAX 250101 AAA
TAFOFK
TAF AMD
KOFK 250101Z 2501/2524 36012KT 3SM -SHRA OVC010
     FM250500 35011KT 6SM -SHRA OVC015
     FM251000 36010KT 6SM -RA OVC035 PROB30 2510/2512 4SM -RA OVC025
     FM251200 36009KT P6SM OVC050
     FM252100 01004KT P6SM FEW150=

USA.gov is the U.S. government's official web portal to all federal, state and local government web resources and services.